Date,TemperatureHighF,TemperatureAvgF,TemperatureLowF,DewpointHighF,DewpointAvgF,DewpointLowF,HumidityHigh,HumidityAvg,HumidityLow,PressureMaxIn,PressureMinIn,WindSpeedMaxMPH,WindSpeedAvgMPH,GustSpeedMaxMPH,PrecipitationSumIn
2013-1-1,22.1,13.4,3.0,7.2,2.0,-5.1,74,61,43,29.15,28.94,12,0,21,0.00
2013-1-2,34.0,24.3,11.8,25.9,16.7,7.1,81,73,54,29.06,28.88,8,0,17,0.00
2013-1-3,30.4,23.1,14.4,24.2,13.4,6.4,78,66,52,29.23,29.06,26,2,35,0.00
2013-1-4,32.2,21.5,15.1,22.3,14.6,10.4,87,75,53,29.15,28.97,12,0,20,0.00
2013-1-5,28.8,22.3,13.6,22.6,14.0,8.6,85,71,54,29.03,28.82,34,2,45,0.00
2013-1-6,32.7,23.0,11.3,19.9,14.4,5.5,80,70,54,29.15,28.94,25,1,36,0.00
2013-1-7,38.5,30.9,23.5,28.5,23.6,19.1,86,75,62,28.94,28.79,18,1,25,0.00
2013-1-8,39.4,30.5,22.1,32.8,23.8,18.9,90,77,55,28.97,28.67,14,1,28,0.00
2013-1-9,44.6,33.9,24.1,30.8,25.4,20.8,89,73,46,29.26,28.97,9,0,20,0.00
2013-1-10,41.4,37.1,31.3,34.8,27.3,17.0,89,70,41,29.15,28.53,11,1,17,0.00
2013-1-11,52.5,41.7,27.0,47.2,36.4,13.0,91,82,55,28.56,28.23,35,9,44,0.00
2013-1-12,25.9,18.6,10.4,10.7,2.1,-5.0,56,48,43,28.97,28.59,32,8,36,0.00
2013-1-13,20.5,12.2,6.6,1.0,-4.4,-8.5,49,47,41,29.15,28.94,21,5,35,0.00
2013-1-14,27.7,15.4,5.7,9.9,-0.7,-10.1,72,49,41,29.26,29.15,0,0,21,0.00
2013-1-15,34.5,21.7,10.9,15.3,7.7,0.1,77,55,40,29.18,28.88,17,1,27,0.00
2013-1-16,50.2,35.5,22.1,27.1,20.5,10.6,76,55,38,29.09,28.76,26,2,34,0.00
2013-1-17,37.8,28.8,21.0,28.7,22.9,17.0,88,79,63,29.29,29.09,20,1,26,0.00
2013-1-18,49.6,38.3,27.0,29.9,24.7,22.4,90,60,38,29.12,28.73,20,2,32,0.00
2013-1-19,51.8,37.8,21.6,25.9,21.3,4.8,73,53,36,29.18,28.70,38,7,40,0.00
2013-1-20,21.2,16.8,12.7,5.5,1.8,-1.1,63,51,41,29.23,29.15,22,4,32,0.00
2013-1-21,14.9,10.3,4.5,4.6,-2.9,-8.5,63,54,50,29.29,29.18,25,6,41,0.00
2013-1-22,24.4,15.0,10.8,5.2,1.0,-2.6,61,53,43,29.21,29.09,0,0,12,0.00
2013-1-23,28.4,17.9,9.7,12.4,3.9,-6.1,73,54,44,31.01,17.72,32,6,39,0.00
2013-1-24,19.9,11.6,1.8,1.1,-6.1,-13.4,48,44,39,17.72,17.72,25,2,31,0.00
2013-1-25,47.1,27.9,13.8,22.0,10.8,-2.3,69,49,36,17.72,17.72,17,1,25,0.00
2013-1-26,46.8,31.1,17.2,22.0,14.3,4.9,71,51,37,17.72,17.72,13,1,22,0.00
2013-1-27,44.2,40.0,36.3,40.6,33.8,17.5,89,80,41,17.72,17.72,14,4,22,0.00
2013-1-28,46.9,41.0,36.0,43.0,37.5,33.0,89,87,85,17.72,17.72,14,2,20,0.00
2013-1-29,42.8,35.2,31.3,38.9,29.5,24.9,88,80,69,17.72,17.72,34,15,49,0.00
2013-1-30,30.7,22.8,14.2,27.1,12.2,1.4,89,65,44,17.72,17.72,35,16,52,0.00
2013-1-31,13.8,6.9,-1.7,1.4,-5.1,-13.2,57,57,57,17.72,17.72,34,12,50,0.00
2013-2-1,29.8,14.9,-3.3,12.6,0.6,-14.7,57,53,43,28.91,17.72,20,7,34,0.00
2013-2-2,37.9,30.6,25.0,28.8,17.5,11.8,77,58,44,29.03,28.88,22,4,30,0.00
2013-2-3,42.1,32.8,18.5,23.2,16.7,5.0,64,52,40,29.03,28.61,31,8,40,0.00
2013-2-4,36.0,27.7,22.5,25.0,17.3,10.8,82,65,50,28.85,28.61,42,8,46,0.00
2013-2-5,49.3,36.2,25.5,31.2,22.4,17.4,87,61,34,28.91,28.67,39,6,39,0.00
2013-2-6,54.1,42.1,30.2,30.2,26.4,21.4,76,55,38,28.91,28.67,15,2,35,0.00
2013-2-7,41.2,34.0,29.1,31.2,24.7,17.0,81,69,59,29.06,28.73,34,14,41,0.00
2013-2-8,35.1,29.5,26.1,24.6,20.4,17.2,86,69,51,29.18,28.97,15,2,22,0.00
2013-2-9,48.6,38.1,28.0,29.8,27.9,24.7,88,68,47,28.97,28.53,25,6,30,0.00
2013-2-10,46.8,38.3,30.2,42.5,28.7,15.6,87,69,51,28.61,28.11,41,14,56,0.00
2013-2-11,35.8,29.8,20.1,20.0,15.2,12.6,73,55,44,28.97,28.64,38,7,55,0.00
2013-2-12,47.7,31.4,17.8,27.4,16.2,12.3,86,57,31,28.97,28.73,13,0,28,0.00
2013-2-13,52.7,37.1,22.1,27.5,20.2,12.4,79,53,31,28.73,28.56,12,0,24,0.00
2013-2-14,44.8,36.7,21.4,29.0,21.5,8.1,85,56,34,29.12,28.61,28,3,45,0.00
2013-2-15,34.7,23.7,13.8,20.8,11.1,4.8,84,60,37,29.18,29.12,13,0,30,0.00
2013-2-16,36.5,24.7,8.4,19.6,12.8,0.4,78,61,47,29.15,28.85,0,0,8,0.00
2013-2-17,54.5,38.6,24.4,28.8,22.0,15.9,74,53,36,28.82,28.41,0,0,17,0.00
2013-2-18,41.7,31.7,21.2,29.7,18.6,7.3,89,59,43,28.88,28.41,31,4,46,0.00
2013-2-19,24.8,15.7,8.6,7.4,-2.4,-8.2,53,45,33,29.21,28.88,32,7,45,0.00
2013-2-20,25.5,16.5,4.3,2.9,-3.8,-12.8,44,40,35,29.21,29.03,13,0,21,0.00
2013-2-21,25.9,22.8,21.2,19.8,10.7,1.1,86,62,39,29.06,28.67,12,0,30,0.00
2013-2-22,25.0,19.4,10.0,17.3,9.7,0.3,82,66,50,28.85,28.67,0,0,18,0.00
2013-2-23,35.8,21.7,5.9,20.8,10.3,-3.6,79,62,48,28.85,28.67,8,0,8,0.00
2013-2-24,45.9,32.1,19.9,24.5,19.7,14.5,81,62,38,28.91,28.73,0,0,8,0.00
2013-2-25,37.8,30.1,26.1,24.5,21.9,18.9,87,72,50,28.91,28.76,8,0,21,0.00
2013-2-26,32.7,28.9,25.9,26.5,23.5,20.8,90,80,71,28.76,28.61,30,6,39,0.00
2013-2-27,37.2,30.0,23.5,22.3,17.8,12.4,79,61,43,28.94,28.73,27,5,45,0.00
2013-2-28,33.4,27.9,25.2,19.7,17.2,14.3,71,64,50,29.06,28.94,31,6,40,0.00
2013-3-1,29.5,25.8,23.5,17.3,12.5,8.9,71,57,44,29.18,29.03,18,1,24,0.00
2013-3-2,41.7,28.7,18.1,18.5,12.4,7.7,66,51,33,29.18,28.94,0,0,0,0.00
2013-3-3,42.8,33.9,26.1,21.8,19.7,18.0,76,57,41,28.94,28.56,0,0,8,0.00
2013-3-4,45.1,36.0,30.4,28.8,21.9,15.9,83,57,40,28.85,28.50,0,0,12,0.00
2013-3-5,33.4,27.7,23.5,13.7,11.5,8.0,58,50,43,29.21,28.85,25,3,42,0.00
2013-3-6,38.1,30.4,21.2,16.9,13.9,10.2,64,51,39,29.23,29.06,0,0,17,0.00
2013-3-7,50.2,35.5,23.5,24.5,18.8,14.3,70,52,35,29.09,28.94,0,0,11,0.00
2013-3-8,56.5,42.9,31.1,38.0,26.3,20.3,83,54,36,29.00,28.73,0,0,0,0.00
2013-3-9,58.1,47.0,36.0,49.0,40.9,32.8,88,80,65,28.76,28.38,39,4,58,0.00
2013-3-10,35.8,29.4,23.2,32.6,26.4,20.2,90,89,87,28.79,28.53,60,28,63,0.00
2013-3-11,30.6,24.4,20.3,20.2,13.7,8.9,89,65,43,28.82,28.73,26,6,41,0.00
2013-3-12,34.5,28.0,19.6,20.0,15.1,12.0,86,59,45,29.15,28.85,22,3,49,0.00
2013-3-13,43.9,28.8,14.9,18.3,13.1,8.7,80,54,33,29.26,29.06,0,0,12,0.00
2013-3-14,55.4,42.3,31.3,33.5,25.3,15.4,75,51,41,29.06,28.88,20,0,21,0.00
2013-3-15,60.4,45.9,34.9,44.4,33.6,30.0,86,65,37,28.91,28.59,13,0,22,0.00
2013-3-16,40.1,33.0,28.4,35.5,21.9,16.2,86,64,48,29.03,28.70,34,4,36,0.00
2013-3-17,46.9,34.6,23.0,31.2,19.2,12.6,82,55,39,28.97,28.59,0,0,17,0.00
2013-3-18,36.3,33.5,24.8,32.5,16.9,6.8,87,53,33,28.88,28.56,36,9,46,0.00
2013-3-19,50.0,32.6,19.6,21.3,12.0,5.9,57,43,28,29.15,28.88,31,2,40,0.00
2013-3-20,34.3,24.1,14.9,7.6,3.6,-1.8,57,41,32,29.23,28.94,27,5,39,0.00
2013-3-21,33.4,27.6,21.6,11.5,6.7,3.4,53,41,34,28.94,28.76,0,0,12,0.00
2013-3-22,37.8,32.2,27.0,16.2,12.1,8.7,53,43,37,28.85,28.79,0,0,0,0.00
2013-3-23,40.5,33.2,29.3,26.8,20.2,12.5,87,61,38,28.94,28.85,20,2,32,0.00
2013-3-24,29.8,27.1,25.3,25.2,17.6,10.6,88,68,47,28.91,28.85,24,4,40,0.00
2013-3-25,32.0,27.0,23.4,23.3,17.3,11.6,86,67,44,29.18,28.91,30,6,41,0.00
2013-3-26,40.3,27.9,12.4,21.0,12.7,6.0,79,55,38,29.21,29.06,0,0,11,0.00
2013-3-27,51.8,39.8,25.9,25.0,19.9,14.1,69,46,32,29.09,29.00,14,0,21,0.00
2013-3-28,62.6,46.1,28.2,36.3,25.0,21.1,83,48,26,29.09,28.97,0,0,13,0.00
2013-3-29,67.6,54.0,34.0,40.4,28.4,24.0,78,41,24,29.06,28.88,15,0,15,0.00
2013-3-30,65.1,56.6,47.3,54.8,37.8,25.4,85,54,27,28.91,28.76,22,3,34,0.00
2013-3-31,56.3,46.5,33.4,38.6,28.8,18.1,88,55,26,28.97,28.79,34,6,42,0.00
2013-4-1,39.0,29.7,19.6,29.9,14.7,8.5,89,56,32,29.18,29.00,15,0,30,0.00
2013-4-2,52.7,38.1,20.7,29.9,16.5,9.6,77,45,29,29.15,29.06,9,0,21,0.00
2013-4-3,57.6,43.4,29.8,25.1,19.1,14.6,55,39,27,29.18,29.03,11,0,21,0.00
2013-4-4,62.1,48.1,29.7,31.7,25.2,16.5,76,43,30,29.06,28.88,22,1,34,0.00
2013-4-5,70.2,53.7,34.2,34.7,28.0,21.7,69,39,24,29.00,28.56,12,1,28,0.00
2013-4-6,69.1,58.5,50.4,40.8,33.5,30.5,57,40,26,28.64,28.44,22,3,40,0.00
2013-4-7,76.3,57.5,42.8,48.0,37.2,31.9,83,50,23,28.70,28.50,18,0,26,0.00
2013-4-8,62.4,57.8,46.9,54.8,51.5,42.7,85,80,76,28.56,28.44,14,1,21,0.00
2013-4-9,62.4,62.4,62.4,54.8,54.8,54.8,76,76,76,28.79,28.44,41,19,56,0.00
2013-4-10,62.4,62.4,62.4,54.8,54.8,54.8,76,76,76,28.82,28.64,32,15,46,0.00
2013-4-11,62.4,62.4,62.4,54.8,54.8,54.8,76,76,76,28.64,28.50,25,10,34,0.00
2013-4-12,62.4,62.4,62.4,54.8,54.8,54.8,76,76,76,28.85,28.56,34,8,39,0.00
2013-4-13,62.4,62.4,62.4,54.8,54.8,54.8,76,76,76,28.85,28.53,14,2,26,0.00
2013-4-14,62.4,62.4,62.4,54.8,54.8,54.8,76,76,76,28.53,28.17,18,2,25,0.00
2013-4-15,62.4,62.4,62.4,54.8,54.8,54.8,76,76,76,28.94,28.53,0,0,8,0.00
2013-4-16,62.4,62.4,62.4,54.8,54.8,54.8,76,76,76,29.09,28.91,0,0,13,0.00
2013-4-17,62.4,62.4,62.4,54.8,54.8,54.8,76,76,76,29.00,28.56,44,10,53,0.00
2013-4-18,62.4,62.4,62.4,54.8,54.8,54.8,76,76,76,28.73,28.53,45,15,54,0.00
2013-4-19,62.4,51.7,30.6,54.8,35.5,13.9,76,56,31,28.94,28.70,15,1,30,0.00
2013-4-20,50.2,37.3,21.9,23.5,16.2,11.5,77,45,28,29.09,28.94,0,0,0,0.00
2013-4-21,71.6,55.6,43.0,47.8,32.5,21.1,81,45,25,28.97,28.82,18,0,22,0.00
2013-4-22,54.7,51.6,46.2,46.6,44.3,40.1,80,76,74,29.06,28.79,36,7,54,0.00
2013-4-23,54.7,54.7,54.7,46.6,46.6,46.6,74,74,74,29.09,29.00,36,9,46,0.00
2013-4-24,54.7,54.7,54.7,46.6,46.6,46.6,74,74,74,29.03,28.88,21,1,49,0.00
2013-4-25,68.7,56.8,28.9,46.6,33.3,23.3,84,46,23,29.09,28.85,21,1,32,0.00
2013-4-26,74.7,60.5,49.8,42.7,36.2,28.2,74,42,29,29.03,28.85,12,1,21,0.00
2013-4-27,68.2,55.9,42.4,49.2,41.6,38.0,85,62,35,29.06,28.79,0,0,11,0.00
2013-4-28,81.1,65.1,46.0,51.3,42.4,39.4,84,50,23,28.79,28.53,13,0,27,0.00
2013-4-29,84.4,68.3,55.6,49.0,44.2,38.6,70,45,22,28.61,28.38,8,0,26,0.00
2013-4-30,76.1,68.9,61.7,48.7,40.4,33.1,47,36,30,28.73,28.35,27,4,36,0.00
2013-5-1,61.3,42.5,34.7,37.4,32.6,29.2,84,70,34,29.23,28.73,42,17,45,0.00
2013-5-2,49.5,40.2,34.5,33.4,25.5,20.2,95,59,37,29.35,29.23,34,7,46,0.00
2013-5-3,47.3,39.9,31.1,26.1,22.9,19.8,73,52,38,29.23,28.88,24,4,44,0.00
2013-5-4,43.9,40.0,35.8,38.5,34.0,26.4,86,79,60,28.97,28.82,39,13,46,0.00
2013-5-5,55.9,48.2,42.4,44.0,40.5,38.0,85,75,59,29.00,28.94,26,6,34,0.00
2013-5-6,66.4,55.3,48.6,44.5,43.2,40.8,84,66,40,29.00,28.88,12,0,20,0.00
2013-5-7,78.1,62.5,45.7,54.8,46.1,41.0,86,61,30,28.94,28.79,8,0,25,0.00
2013-5-8,72.9,63.9,57.2,58.2,52.2,47.7,81,67,47,28.82,28.73,13,0,17,0.00
2013-5-9,61.3,60.4,58.1,54.0,52.7,50.6,83,76,74,28.85,28.70,21,5,35,0.00
2013-5-10,61.3,61.3,61.3,53.0,53.0,53.0,74,74,74,28.94,28.85,27,7,39,0.00
2013-5-11,61.3,58.5,41.5,53.0,42.1,15.9,74,58,25,29.09,28.88,34,10,53,0.00
2013-5-12,64.6,51.0,31.3,27.2,22.5,16.6,63,35,23,29.12,28.94,4,0,7,0.00
2013-5-13,83.8,66.9,46.0,44.2,35.5,21.3,55,33,21,28.94,28.70,9,1,11,0.00
2013-5-14,99.1,80.4,58.8,59.3,46.3,35.6,79,36,16,28.70,28.50,11,1,12,0.00
2013-5-15,83.7,74.1,62.8,38.2,34.6,30.0,35,24,19,28.76,28.61,5,0,11,0.00
2013-5-16,88.7,75.4,61.3,55.9,46.8,34.9,57,37,26,28.73,28.61,4,0,7,0.00
2013-5-17,86.2,75.7,63.5,57.8,52.7,48.2,73,47,29,28.73,28.67,0,0,4,0.00
2013-5-18,89.1,76.7,62.4,59.8,55.3,50.1,80,50,31,28.73,28.53,3,0,6,0.00
2013-5-19,69.8,66.2,61.2,59.4,58.3,54.3,81,76,60,28.64,28.35,9,0,12,0.00
2013-5-20,67.6,67.6,67.6,59.1,59.1,59.1,74,74,74,28.50,28.35,5,0,12,0.00
2013-5-21,67.6,67.6,67.6,59.1,59.1,59.1,74,74,74,28.59,28.44,7,1,9,0.00
2013-5-22,67.6,59.5,52.2,59.1,48.6,40.8,81,68,51,28.82,28.59,4,0,10,0.00
2013-5-23,71.2,60.7,52.0,47.4,41.0,32.3,81,53,25,29.06,28.82,5,0,9,0.00
2013-5-24,77.2,65.4,49.6,44.3,39.8,34.6,65,41,27,29.12,28.85,0,0,6,0.00
2013-5-25,82.2,68.8,58.1,61.5,53.0,37.6,83,59,36,28.97,28.79,5,0,5,0.00
2013-5-26,82.2,70.8,63.1,61.6,59.8,56.8,83,70,47,28.85,28.67,0,0,5,0.00
2013-5-27,71.1,63.4,61.3,60.2,56.9,55.5,83,79,67,28.76,28.47,9,1,13,0.00
2013-5-28,63.1,63.1,63.1,56.9,56.9,56.9,80,80,80,28.59,28.47,6,1,9,0.00
2013-5-29,63.1,63.1,63.1,56.9,56.9,56.9,80,80,80,28.59,28.41,4,0,7,0.00
2013-5-30,63.1,63.1,63.1,56.9,56.9,56.9,80,80,80,28.50,28.35,4,0,10,0.00
2013-5-31,63.1,63.1,63.1,56.9,56.9,56.9,80,80,80,28.56,28.47,9,1,12,0.00
2013-6-1,63.1,63.1,63.1,56.9,56.9,56.9,80,80,80,28.88,28.53,10,2,14,0.00
2013-6-2,63.1,63.1,63.1,56.9,56.9,56.9,80,80,80,28.97,28.85,3,0,11,0.00
2013-6-3,63.1,63.1,63.1,56.9,56.9,56.9,80,80,80,28.88,28.67,3,0,7,0.00
2013-6-4,63.1,63.1,63.1,56.9,56.9,56.9,80,80,80,28.85,28.73,3,0,5,0.00
2013-6-5,63.1,63.1,63.1,56.9,56.9,56.9,80,80,80,28.91,28.82,6,1,12,0.00
2013-6-6,63.1,63.1,63.1,56.9,56.9,56.9,80,80,80,28.85,28.79,5,0,9,0.00
2013-6-7,63.1,63.1,63.1,56.9,56.9,56.9,80,80,80,28.88,28.73,0,0,4,0.00
2013-6-8,63.1,63.1,63.1,56.9,56.9,56.9,80,80,80,28.76,28.53,3,0,11,0.00
2013-6-9,63.1,63.1,63.1,56.9,56.9,56.9,80,80,80,28.67,28.56,10,1,12,0.00
2013-6-10,63.1,63.1,63.1,56.9,56.9,56.9,80,80,80,28.76,28.64,3,0,6,0.00
2013-6-11,63.1,63.1,63.1,56.9,56.9,56.9,80,80,80,28.67,28.56,3,0,4,0.00
2013-6-12,63.1,63.1,63.1,56.9,56.9,56.9,80,80,80,28.88,28.53,13,2,16,0.00
2013-6-13,63.1,63.1,63.1,56.9,56.9,56.9,80,80,80,28.97,28.82,3,0,6,0.00
2013-6-14,63.1,63.1,63.1,56.9,56.9,56.9,80,80,80,28.88,28.61,3,0,16,0.00
2013-6-15,63.1,63.1,63.1,56.9,56.9,56.9,80,80,80,28.82,28.67,10,0,11,0.00
2013-6-16,63.1,63.1,63.1,56.9,56.9,56.9,80,80,80,28.85,28.79,5,0,6,0.00
2013-6-17,63.1,63.1,63.1,56.9,56.9,56.9,80,80,80,28.88,28.79,6,1,8,0.00
2013-6-18,63.1,63.1,63.1,56.9,56.9,56.9,80,80,80,28.94,28.82,3,0,6,0.00
2013-6-19,63.1,63.1,63.1,56.9,56.9,56.9,80,80,80,28.85,28.76,5,0,6,0.00
2013-6-20,63.1,63.1,63.1,56.9,56.9,56.9,80,80,80,28.82,28.67,6,0,8,0.00
2013-6-21,63.1,63.1,63.1,56.9,56.9,56.9,80,80,80,28.73,28.61,4,0,9,0.00
2013-6-22,63.1,63.1,63.1,56.9,56.9,56.9,80,80,80,28.85,28.64,8,1,14,0.00
2013-6-23,63.1,63.1,63.1,56.9,56.9,56.9,80,80,80,28.79,28.59,4,0,12,0.00
2013-6-24,63.1,63.1,63.1,56.9,56.9,56.9,80,80,80,28.82,28.59,12,0,16,0.00
2013-6-25,63.1,63.1,63.1,56.9,56.9,56.9,80,80,80,28.67,28.53,3,0,6,0.00
2013-6-26,63.1,63.1,63.1,56.9,56.9,56.9,80,80,80,28.76,28.53,6,1,10,0.00
2013-6-27,63.1,63.1,63.1,56.9,56.9,56.9,80,80,80,28.85,28.73,5,0,7,0.00
2013-6-28,63.1,63.1,63.1,56.9,56.9,56.9,80,80,80,28.85,28.76,13,2,14,0.00
2013-6-29,63.1,63.1,63.1,56.9,56.9,56.9,80,80,80,28.82,28.76,13,2,17,0.00
2013-6-30,63.1,63.1,63.1,56.9,56.9,56.9,80,80,80,28.97,28.82,8,0,9,0.00
2013-7-1,63.1,63.1,63.1,56.9,56.9,56.9,80,80,80,29.03,28.97,6,0,9,0.00
2013-7-2,63.1,63.1,63.1,56.9,56.9,56.9,80,80,80,29.03,28.91,3,0,9,0.00
2013-7-3,63.1,63.1,63.1,56.9,56.9,56.9,80,80,80,28.91,28.82,0,0,0,0.00
2013-7-4,63.1,63.1,63.1,56.9,56.9,56.9,80,80,80,28.85,28.73,6,0,8,0.00
2013-7-5,63.1,63.1,63.1,56.9,56.9,56.9,80,80,80,28.76,28.70,4,0,6,0.00
2013-7-6,78.8,64.8,63.1,59.1,57.1,56.9,80,77,49,28.73,28.67,3,0,7,0.00
2013-7-7,95.4,83.8,72.1,61.2,56.9,52.5,59,41,28,28.76,28.67,6,0,8,0.00
2013-7-8,95.9,83.7,75.0,68.9,63.6,59.1,73,53,30,28.82,28.76,0,0,6,0.00
2013-7-9,97.7,84.8,73.6,71.2,64.8,58.7,83,54,32,28.82,28.73,6,0,8,0.00
2013-7-10,84.6,77.3,68.5,64.7,55.9,49.5,82,50,31,28.97,28.82,6,1,10,0.00
2013-7-11,87.1,76.5,63.5,57.5,53.1,50.3,74,47,30,28.94,28.82,0,0,4,0.00
2013-7-12,89.8,79.6,68.0,61.5,55.8,51.5,60,45,34,28.85,28.76,3,0,7,0.00
2013-7-13,91.4,81.8,72.9,64.8,57.7,51.2,57,44,35,28.82,28.76,4,0,7,0.00
2013-7-14,88.2,79.4,71.1,58.4,52.8,49.2,54,41,28,29.00,28.82,4,0,7,0.00
2013-7-15,93.0,79.1,65.3,62.2,56.9,52.9,75,49,29,29.06,28.97,3,0,4,0.00
2013-7-16,91.0,81.2,69.1,69.3,58.6,53.7,81,49,30,29.12,29.03,4,0,5,0.00
2013-7-17,93.7,83.6,72.1,68.5,61.1,56.7,77,50,29,29.15,29.03,3,0,6,0.00
2013-7-18,93.4,84.3,73.0,66.7,59.6,53.8,72,46,28,29.03,28.79,6,1,9,0.00
2013-7-19,93.0,83.4,74.8,64.2,56.1,51.2,56,40,27,28.82,28.73,4,1,7,0.00
2013-7-20,75.0,70.9,65.8,55.7,53.8,52.5,67,55,47,28.82,28.76,0,0,0,0.00
2013-7-29,68.0,66.6,65.8,60.5,59.4,58.3,83,78,71,17.72,17.72,0,0,3,0.00
2013-7-30,79.3,71.0,65.7,63.2,59.6,55.6,85,69,47,17.72,17.72,3,0,7,0.00
2013-7-31,84.9,74.6,62.6,67.7,57.0,52.3,86,58,33,17.72,17.72,0,0,0,0.00
2013-8-1,90.3,73.6,62.2,69.3,59.0,52.7,85,64,31,17.72,17.72,0,0,5,0.00
2013-8-2,88.9,76.8,65.8,67.0,58.9,54.2,85,57,36,17.72,17.72,4,0,6,0.00
2013-8-4,72.3,71.9,71.6,61.2,61.0,60.8,69,69,68,0.00,40.00,0,0,0,0.00
2013-8-5,88.0,76.4,68.9,72.1,65.9,60.3,83,71,45,17.72,17.72,0,0,0,0.00
2013-8-6,88.9,77.4,66.0,69.2,65.6,61.4,86,69,43,17.72,17.72,6,0,13,0.00
2013-8-7,81.7,75.5,67.3,69.1,56.9,46.3,83,56,31,17.72,17.72,6,0,7,0.00
2013-8-8,83.1,73.2,65.8,58.8,55.8,52.2,73,56,35,17.72,17.72,0,0,4,0.00
2013-8-9,82.9,72.4,62.1,66.5,55.4,47.3,85,58,32,17.72,17.72,5,0,7,0.00
2013-8-10,84.9,72.5,58.5,65.1,53.3,49.6,85,55,32,17.72,17.72,0,0,4,0.00
2013-8-11,89.2,77.9,64.0,64.3,57.7,52.9,75,52,33,17.72,17.72,3,0,5,0.00
2013-8-12,83.5,75.7,68.0,66.2,56.6,48.1,81,55,30,17.72,17.72,4,0,7,0.00
2013-8-13,81.1,71.6,61.3,57.0,49.5,43.8,78,48,30,17.72,17.72,3,0,6,0.00
2013-8-14,82.6,68.6,59.4,55.6,50.1,47.3,74,54,30,17.72,17.72,0,0,3,0.00
2013-8-15,71.4,64.6,61.0,59.8,56.1,51.1,89,75,54,17.72,17.72,4,0,7,0.00
2013-8-16,80.2,68.8,62.2,55.5,50.7,45.8,76,55,33,17.72,17.72,0,0,4,0.00
2013-8-17,82.6,69.7,57.9,57.9,49.6,44.5,80,52,31,17.72,17.72,0,0,4,0.00
2013-8-18,83.7,69.6,54.7,60.9,50.9,47.1,85,55,33,17.72,17.72,0,0,4,0.00
2013-8-19,88.0,76.4,64.9,61.6,58.1,55.5,77,55,36,17.72,17.72,3,0,4,0.00
2013-8-20,89.8,79.7,69.8,65.6,61.2,58.5,79,55,37,17.72,17.72,3,0,6,0.00
2013-8-21,92.7,81.5,71.4,64.4,61.2,57.4,71,52,34,17.72,17.72,4,0,8,0.00
2013-8-22,89.6,78.4,70.0,64.4,60.0,54.2,79,55,33,17.72,17.72,5,0,10,0.00
2013-8-23,91.8,80.5,69.6,69.9,61.4,54.4,81,55,30,17.72,17.72,0,0,3,0.00
2013-8-24,92.3,82.7,74.5,65.8,62.6,60.1,69,52,35,17.72,17.72,3,0,6,0.00
2013-8-25,94.5,84.0,72.9,67.1,63.3,57.8,78,53,30,17.72,17.72,9,0,9,0.00
2013-8-26,97.0,84.6,73.4,67.9,61.9,57.2,75,49,29,17.72,17.72,3,0,9,0.00
2013-8-27,95.4,85.2,75.0,61.9,58.7,55.8,60,42,27,17.72,17.72,4,0,9,0.00
2013-8-28,96.4,82.5,68.5,61.2,56.6,53.1,70,44,24,17.72,17.72,3,0,5,0.00
2013-8-29,95.7,83.2,70.2,75.0,62.4,57.2,81,53,28,17.72,17.72,3,0,7,0.00
2013-8-30,95.7,83.1,70.7,72.2,64.2,57.5,79,56,31,17.72,17.72,8,0,8,0.00
2013-8-31,93.0,80.8,72.5,72.2,64.3,53.8,84,61,29,17.72,17.72,0,0,3,0.00
2013-9-1,80.6,75.7,65.7,72.0,56.5,46.8,87,56,31,17.72,17.72,5,0,12,0.00
2013-9-2,76.8,67.3,58.6,62.5,49.1,37.2,88,57,25,17.72,17.72,3,0,6,0.00
2013-9-3,84.9,70.5,54.7,67.6,51.7,49.0,86,56,30,17.72,17.72,0,0,0,0.00
2013-9-4,89.1,76.4,68.2,56.4,53.5,50.4,60,46,30,17.72,17.72,0,0,0,0.00
2013-9-5,88.0,77.1,68.7,65.1,56.7,52.2,81,52,30,17.72,17.72,0,0,0,0.00
2013-9-6,92.3,79.4,67.6,61.5,57.1,53.7,67,48,30,17.72,17.72,0,0,3,0.00
2013-9-7,91.2,80.1,70.7,67.3,61.3,55.7,77,55,31,17.72,17.72,0,0,3,0.00
2013-9-14,80.1,73.4,67.1,46.6,44.6,42.3,46,36,29,28.88,28.70,0,0,4,0.00
2013-9-15,69.3,66.0,62.6,61.4,51.5,45.9,86,61,44,29.09,28.70,4,0,11,0.00
2013-9-16,70.9,62.4,55.2,57.2,46.9,43.3,84,58,37,29.15,29.03,0,0,3,0.00
2013-9-17,74.3,65.2,57.9,63.9,59.0,52.3,88,81,66,29.03,28.73,3,0,5,0.00
2013-9-18,81.1,75.8,66.6,69.7,63.3,62.1,86,67,54,28.73,28.56,4,0,6,0.00
2013-9-19,81.1,73.7,62.6,64.0,56.8,40.1,85,57,40,28.85,28.56,11,1,16,0.00
2013-9-20,67.1,59.9,51.1,43.1,40.2,37.1,74,51,33,28.91,28.82,7,1,10,0.00
2013-9-21,67.1,67.1,67.1,37.1,37.1,37.1,33,33,33,28.88,28.70,0,0,4,0.00
2013-9-22,67.1,67.1,67.1,37.1,37.1,37.1,33,33,33,28.73,28.64,3,0,8,0.00
2013-9-23,67.1,67.1,67.1,37.1,37.1,37.1,33,33,33,28.67,28.56,6,0,6,0.00
2013-9-24,67.1,67.1,67.1,37.1,37.1,37.1,33,33,33,28.76,28.56,4,0,8,0.00
2013-9-25,67.1,67.1,67.1,37.1,37.1,37.1,33,33,33,28.76,28.59,3,0,4,0.00
2013-9-26,67.1,67.1,67.1,37.1,37.1,37.1,33,33,33,28.67,28.59,4,0,6,0.00
2013-9-27,67.1,67.1,67.1,37.1,37.1,37.1,33,33,33,28.67,28.61,5,0,5,0.00
2013-9-28,67.1,67.1,67.1,37.1,37.1,37.1,33,33,33,28.91,28.53,8,0,11,0.00
2013-9-29,67.1,61.5,44.2,54.0,47.5,37.1,88,64,33,28.91,28.73,0,0,5,0.00
2013-9-30,60.1,60.1,60.1,52.9,52.9,52.9,77,77,77,28.73,28.56,3,0,7,0.00
2013-10-1,64.2,62.4,57.6,55.7,49.1,46.4,80,63,53,28.79,28.61,0,0,7,0.00
2013-10-2,84.0,78.2,59.0,62.3,52.1,46.4,82,43,31,28.79,28.67,0,0,4,0.00
2013-10-3,83.8,70.2,61.3,64.0,56.4,50.0,88,65,31,28.73,28.59,3,0,5,0.00
2013-10-4,80.2,67.9,51.4,65.7,56.3,31.4,90,69,36,28.73,28.47,6,1,14,0.00
2013-10-5,56.5,47.8,41.0,31.4,27.3,25.2,57,45,35,28.79,28.64,10,1,13,0.00
2013-10-6,50.2,46.3,42.3,43.8,38.5,28.0,84,75,52,28.85,28.61,6,1,12,0.00
2013-10-7,70.5,54.3,39.4,45.2,33.5,28.6,84,49,25,28.91,28.82,4,0,8,0.00
2013-10-8,75.7,61.2,48.0,39.5,36.0,33.0,66,41,25,28.85,28.73,3,0,8,0.00
2013-10-9,75.0,63.3,52.9,44.2,41.2,37.3,68,46,31,28.85,28.76,0,0,6,0.00
2013-10-10,79.3,65.8,55.2,47.0,44.3,40.4,69,48,31,28.82,28.64,0,0,6,0.00
2013-10-11,76.8,65.5,52.7,52.5,43.5,32.9,67,48,22,28.73,28.47,11,0,11,0.00
2013-10-12,64.4,52.7,42.4,37.0,29.3,21.3,69,43,24,29.12,28.73,4,0,7,0.00
2013-10-13,43.0,38.8,36.3,29.0,26.2,24.4,72,61,48,29.21,29.12,0,0,0,0.00
2013-10-16,42.4,42.4,42.3,31.5,31.2,30.8,65,64,63,28.82,28.79,0,0,0,0.00
2013-10-17,59.4,45.4,34.2,37.7,30.8,26.8,84,59,35,28.88,28.73,9,0,9,0.00
2013-10-18,52.7,42.2,33.4,33.0,25.8,19.6,77,54,33,28.97,28.85,3,0,5,0.00
2013-10-19,60.6,44.1,31.1,32.9,27.5,20.2,79,55,30,28.85,28.64,4,0,7,0.00
2013-10-20,64.4,51.3,40.8,37.0,32.7,27.8,69,51,28,28.85,28.56,4,0,9,0.00
2013-10-21,52.3,42.0,28.8,37.0,27.9,23.1,84,60,37,28.94,28.79,4,0,5,0.00
2013-10-22,49.1,43.7,37.9,38.6,30.7,23.8,81,61,47,28.97,28.70,6,0,12,0.00
2013-10-23,52.3,40.2,30.6,38.2,30.2,22.8,81,68,45,29.03,28.88,0,0,0,0.00
2013-10-24,47.7,37.7,29.5,28.5,21.5,17.4,81,54,31,29.23,29.03,3,0,6,0.00
2013-10-25,57.6,41.8,26.1,29.7,24.0,19.7,80,53,31,29.23,28.91,6,0,9,0.00
2013-10-26,49.6,43.0,30.6,29.1,23.6,17.3,62,47,34,29.06,28.85,6,0,12,0.00
2013-10-27,67.6,46.0,27.9,32.2,26.3,19.0,79,51,26,28.97,28.67,0,0,6,0.00
2013-10-28,56.7,47.2,40.6,32.4,28.2,25.5,62,48,36,29.03,28.79,10,0,10,0.00
2013-10-29,54.5,48.1,41.9,51.3,43.9,32.8,89,85,58,29.06,28.79,0,0,6,0.00
2013-10-30,62.2,50.5,43.2,59.0,46.9,38.7,91,87,82,28.82,28.61,8,2,14,0.00
2013-10-31,57.0,44.3,36.1,44.3,33.9,26.1,88,70,38,28.61,28.38,8,1,10,0.00
2013-11-1,59.2,46.2,36.7,37.4,32.6,27.8,81,62,31,28.82,28.44,10,0,13,0.00
2013-11-2,55.0,43.6,34.3,33.1,28.1,23.3,80,56,33,29.03,28.82,3,0,9,0.00
2013-11-3,58.8,48.6,37.6,29.5,27.1,23.8,63,44,31,28.94,28.59,3,0,6,0.00
2013-11-4,55.4,48.3,34.9,38.8,30.4,24.3,73,51,36,28.97,28.64,4,0,7,0.00
2013-11-5,45.3,40.6,34.2,40.9,34.2,26.6,93,79,51,28.97,28.67,9,2,16,0.00
2013-11-6,44.1,36.3,29.3,34.0,27.5,21.6,93,72,50,29.09,28.88,9,2,13,0.00
2013-11-7,47.1,35.3,28.0,30.2,21.0,13.6,87,60,30,29.23,29.09,6,0,10,0.00
2013-11-8,61.3,47.2,30.6,30.0,24.7,18.0,59,42,28,29.12,28.59,4,0,12,0.00
2013-11-9,58.8,46.9,37.6,31.8,26.1,22.9,69,45,29,29.18,28.76,3,0,7,0.00
2013-11-10,52.5,42.2,29.3,26.8,22.6,18.3,70,47,32,29.23,28.97,0,0,3,0.00
2013-11-11,44.1,32.2,17.6,37.3,17.0,1.6,80,54,40,29.56,28.94,13,3,15,0.00
2013-11-12,31.8,20.0,9.5,6.4,1.9,-3.0,64,46,32,29.71,29.38,4,0,8,0.00
2013-11-13,52.3,36.5,22.3,22.7,14.0,3.2,48,40,31,29.35,28.82,3,0,9,0.00
2013-11-14,55.8,42.1,31.6,28.8,22.3,15.6,65,46,34,28.82,28.73,0,0,0,0.00
2013-11-15,56.1,42.0,27.1,37.9,27.5,20.6,80,59,35,28.73,28.47,0,0,7,0.00
2013-11-16,63.1,51.8,40.5,53.0,35.7,23.1,87,58,31,28.47,28.17,3,0,6,0.00
2013-11-17,55.0,46.5,37.4,35.9,29.1,24.2,78,51,37,28.88,28.20,0,0,4,0.00
2013-11-18,54.1,39.5,28.9,27.6,21.0,14.3,77,50,27,29.09,28.91,0,0,0,0.00
2013-11-19,61.9,47.0,33.3,28.6,20.8,15.8,53,37,25,29.00,28.73,0,0,9,0.00
2013-11-20,56.1,48.0,39.0,31.5,26.1,19.6,73,43,31,28.76,28.61,0,0,3,0.00
2013-11-21,38.3,29.0,21.0,30.4,18.3,10.0,80,65,49,29.35,28.76,4,0,9,0.00
2013-11-22,27.3,19.9,12.2,12.1,3.7,-1.1,68,49,38,29.50,29.38,0,0,4,0.00
2013-11-23,23.0,16.1,9.9,7.4,-1.8,-7.7,60,45,36,29.71,29.44,0,0,3,0.00
2013-11-24,31.5,20.5,9.5,9.9,1.4,-8.0,54,43,39,29.56,29.03,0,0,0,0.00
2013-11-25,44.2,32.9,24.4,21.0,14.5,5.0,56,46,38,29.03,28.94,0,0,4,0.00
2013-11-26,31.3,25.8,16.7,17.3,8.1,-0.7,67,48,33,29.23,29.03,6,0,12,0.00
2013-11-27,33.3,21.1,7.9,9.4,4.2,-4.9,64,48,35,29.23,28.85,0,0,0,0.00
2013-11-28,33.4,26.7,17.2,14.2,9.7,3.9,64,49,39,29.29,28.88,6,0,7,0.00
2013-11-29,21.9,19.2,17.4,11.5,8.6,5.9,65,63,59,29.29,28.97,0,0,0,0.00
2013-11-30,18.9,18.9,18.9,8.4,8.4,8.4,63,63,63,29.00,28.88,0,0,0,0.00
2013-12-1,18.9,18.9,18.9,8.4,8.4,8.4,63,63,63,29.00,28.70,0,0,0,0.00
2013-12-2,18.9,18.9,18.9,8.4,8.4,8.4,63,63,63,28.70,28.38,0,0,0,0.00
2013-12-3,18.9,18.9,18.9,8.4,8.4,8.4,63,63,63,28.53,28.35,0,0,5,0.00
2013-12-4,18.9,18.9,18.9,8.4,8.4,8.4,63,63,63,28.88,28.50,0,0,0,0.00
2013-12-5,18.9,18.9,18.9,8.4,8.4,8.4,63,63,63,29.26,28.88,0,0,0,0.00
2013-12-6,18.9,18.9,18.9,8.4,8.4,8.4,63,63,63,29.50,29.26,0,0,0,0.00
2013-12-7,18.9,18.9,18.9,8.4,8.4,8.4,63,63,63,29.56,29.23,0,0,0,0.00
2013-12-8,18.9,18.9,18.9,8.4,8.4,8.4,63,63,63,29.23,28.82,0,0,0,0.00
2013-12-9,18.9,18.9,18.9,8.4,8.4,8.4,63,63,63,29.12,28.88,0,0,0,0.00
2013-12-10,18.9,18.9,18.9,8.4,8.4,8.4,63,63,63,29.06,28.85,0,0,0,0.00
2013-12-11,18.9,18.9,18.9,8.4,8.4,8.4,63,63,63,29.47,29.06,0,0,4,0.00
2013-12-12,18.9,18.9,18.9,8.4,8.4,8.4,63,63,63,29.26,28.91,0,0,0,0.00
2013-12-13,25.5,19.9,18.9,14.7,9.7,8.4,69,64,63,28.88,28.70,0,0,0,0.00
2013-12-14,22.1,17.0,13.1,12.8,5.6,3.8,67,60,57,29.03,28.91,0,0,0,0.00
2013-12-15,16.3,16.3,16.3,3.8,3.8,3.8,57,57,57,28.97,28.79,0,0,0,0.00
2013-12-16,16.3,16.3,16.3,3.8,3.8,3.8,57,57,57,28.97,28.79,0,0,3,0.00
2013-12-17,16.3,12.6,0.0,3.8,2.9,0.0,57,44,57,29.09,28.91,0,0,3,0.00
2013-12-18,0.0,0.0,0.0,0.0,0.0,0.0,0,0,100,28.91,28.53,0,0,0,0.00
2013-12-19,0.0,0.0,0.0,0.0,0.0,0.0,0,0,100,28.70,28.56,3,0,6,0.00
2013-12-20,0.0,0.0,0.0,0.0,0.0,0.0,0,0,100,28.79,28.70,0,0,0,0.00
2013-12-21,39.2,0.4,0.0,36.2,0.4,0.0,89,1,89,28.70,28.61,0,0,0,0.00
2013-12-22,0.0,0.0,0.0,0.0,0.0,0.0,0,0,100,29.18,28.67,0,0,4,0.00
2013-12-23,0.0,0.0,0.0,0.0,0.0,0.0,0,0,100,29.38,29.21,0,0,0,0.00
2013-12-24,0.0,0.0,0.0,0.0,0.0,0.0,0,0,100,29.32,28.91,0,0,0,0.00
2013-12-25,61.5,7.7,0.0,52.4,6.6,0.0,73,9,72,29.12,29.00,3,0,6,0.00
2013-12-26,0.0,0.0,0.0,0.0,0.0,0.0,0,0,100,29.06,28.91,0,0,0,0.00
2013-12-27,0.0,0.0,0.0,0.0,0.0,0.0,0,0,100,29.09,28.88,0,0,4,0.00
2013-12-28,0.0,0.0,0.0,0.0,0.0,0.0,0,0,100,28.94,28.56,10,1,16,0.00
2013-12-29,0.0,0.0,0.0,0.0,0.0,0.0,0,0,100,29.21,28.97,11,2,15,0.00
2013-12-30,0.0,0.0,0.0,0.0,0.0,0.0,0,0,100,29.09,28.85,3,0,9,0.00
2013-12-31,0.0,0.0,0.0,0.0,0.0,0.0,0,0,100,29.09,28.82,4,0,10,0.00
2014-1-1,0.0,0.0,0.0,0.0,0.0,0.0,0,0,100,29.21,28.94,4,0,9,0.00
2014-1-2,0.0,0.0,0.0,0.0,0.0,0.0,0,0,100,29.26,29.18,0,0,4,0.00